User: anonymous   Login
Location: Unspecified
(0.0000°N, 0.0000°E)
Time: 03:22:35
(UTC+00:00)
Language:

TBA - TO BE ASSIGNED - Orbit

View from above orbital plane
View from above orbital plane
View from above satellite
View from above satellite

Ground track
Ground track

The orbit is defined by the following mean orbital elements,

1 68040U          26145.43820935 +.00000000 +00000-0 +64424-3 0 00006
2 68040  53.1565  51.6393 0000858 101.2409 258.8690 15.34406761    05
Epoch (UTC): 25 May 2026 10:31:01
Eccentricity: 0.0000858
inclination: 53.1565°
perigee height: 462 km
apogee height: 463 km
right ascension of ascending node: 51.6393°
argument of perigee: 101.2409°
revolutions per day: 15.34406761
mean anomaly at epoch: 258.8690°

The dashed part of the orbit path shows where the satellite is in the earth's shadow,  

DLR